Location: Oshawa
(43.9000°N, 78.8670°W)
Time: 00:17:40
(UTC-05:00)

Courier 1B - All Passes

Search period start: 26 November 2014 00:00
Search period end: 06 December 2014 00:00
Orbit: 963 x 1209 km, 28.3° (Epoch: 25 November)

Date Brightness Start Highest point End Pass type
(mag) Time Alt. Az. Time Alt. Az. Time Alt. Az.
26 Nov - 00:00:00 12° SSE 23:59:45 13° SSE 00:00:35 10° SE night (unlit)
26 Nov - 01:47:07 10° SW 01:48:37 11° SSW 01:50:05 10° S night (unlit)
26 Nov - 19:13:55 10° S 19:16:08 11° SSE 19:18:19 10° SE visible
26 Nov - 21:03:53 10° SW 21:09:10 21° S 21:14:15 10° SE visible
26 Nov - 22:56:55 10° SW 23:02:17 22° S 23:07:25 10° SE night (unlit)
27 Nov - 00:51:50 10° SW 00:55:12 14° SSW 00:58:29 10° S night (unlit)
27 Nov - 20:10:33 10° SSW 20:15:35 19° SSE 20:20:29 10° SE visible
27 Nov - 22:03:07 10° SW 22:08:44 23° S 22:14:07 10° SE visible
27 Nov - 23:57:24 10° SW 00:01:45 17° SSW 00:05:58 10° SSE night (unlit)
28 Nov - 19:17:26 10° SSW 19:22:01 17° SSE 19:26:30 10° SE visible
28 Nov - 21:09:26 10° SW 21:15:09 23° S 21:20:40 10° SE visible
28 Nov - 23:03:14 10° SW 23:08:16 20° SSW 23:13:06 10° SSE night (unlit)
29 Nov - 18:24:40 10° S 18:28:27 14° SSE 18:32:10 10° SE visible
29 Nov - 20:15:50 10° SW 20:21:33 23° S 20:27:06 10° SE visible
29 Nov - 22:09:14 10° SW 22:14:43 22° S 22:20:01 10° SE visible
30 Nov - 00:04:50 10° SW 00:07:38 13° SSW 00:10:23 10° S night (unlit)
30 Nov - 17:32:41 10° S 17:34:54 11° SSE 17:37:06 10° SE visible
30 Nov - 19:22:24 10° SW 19:27:56 21° S 19:33:22 10° ESE visible
30 Nov - 21:15:21 10° SW 21:21:09 24° S 21:26:45 10° SE visible
30 Nov - 23:10:02 10° SW 23:14:11 16° SSW 23:18:12 10° SSE night (unlit)
01 Dec - 18:29:08 10° SSW 18:34:20 19° SSE 18:39:28 10° ESE visible
01 Dec - 20:21:35 10° SW 20:27:32 24° S 20:33:19 10° SE visible
01 Dec - 22:15:42 10° WSW 22:20:40 19° SSW 22:25:28 10° SSE visible
02 Dec - 17:36:08 10° SSW 17:40:44 17° SSE 17:45:19 10° SE visible
02 Dec - 19:27:56 10° SW 19:33:54 24° S 19:39:45 10° SE visible
02 Dec - 21:21:36 10° WSW 21:27:06 21° SSW 21:32:27 10° SE visible
02 Dec - 23:18:18 10° SW 23:20:01 11° SSW 23:21:42 10° SSW night (unlit)
03 Dec - 16:43:34 10° S 16:47:10 14° SSE 16:50:47 10° SE daylight
03 Dec - 18:34:25 10° SW 18:40:16 23° S 18:46:03 10° ESE visible
03 Dec - 20:27:39 10° SW 20:33:30 23° S 20:39:13 10° SE visible
03 Dec - 22:22:50 10° SW 22:26:32 14° SSW 22:30:10 10° S night (unlit)
04 Dec - 15:52:07 10° SSE 15:53:38 11° SSE 15:55:09 10° SE daylight
04 Dec - 17:41:05 10° SSW 17:46:38 21° SSE 17:52:11 10° ESE visible
04 Dec - 19:33:50 10° SW 19:39:52 25° S 19:45:48 10° SE visible
04 Dec - 21:28:17 10° SW 21:33:00 17° SSW 21:37:38 10° SSE visible
05 Dec - 16:47:58 10° SSW 16:53:01 19° SSE 16:58:07 10° ESE daylight
05 Dec - 18:40:10 10° SW 18:46:13 25° S 18:52:15 10° SE visible
05 Dec - 20:34:04 10° WSW 20:39:26 20° SSW 20:44:42 10° SSE visible
